Location: Kawakawa
(35.3830°S, 174.0670°E)
Time: 16:19:15
(UTC+13:00)

Cosmos 1655 Rocket - Pass Details

Date: 24 January 2019
Orbit: 971 x 1005 km, 82.9° (Epoch: 15 February)

Event Time Altitude Azimuth Distance (km) Brightness Sun altitude
Rises 20:55:45 0° 357° (N) 3,698 6.8 -4.2°
Reaches altitude 10° 20:58:16 10° 357° (N) 2,752 6.1 -4.6°
Maximum altitude 21:04:36 86° 84° (E) 1,001 4.1 -5.7°
Drops below altitude 10° 21:10:57 10° 173° (S) 2,761 6.7 -6.9°
Sets 21:13:29 0° 173° (S) 3,712 7.4 -7.3°
